Meteo Giornale » Osservazioni meteo Indonesia » Medan-Polonia
ore: 07:30 - Osservazioni Meteo Medan-Polonia
Lat. 3° 34' N Lon. 98° 41' E Alt. 25 metri s.l.m.
26 °C
Foschia
Temp. 24 Ore
24 °C
33 °C
Nord
3.7 Km/h
Dew point 25 °C
Umidità 94 %
Visibilità 2 Km
Il sole sorge alle ore 06:19
Il sole tramonta alle ore 18:30
| Data e Ora | Cielo e Fenomeni | T °C | DP °C | Um. % | Pres. hPa | Vis. km | Vento km/h | |
|---|---|---|---|---|---|---|---|---|
| Oggi h: 07:30 | Foschia | 26 | 25 | 94 | 1012 | 2 | N 3.7 | |
| Oggi h: 07:00 | Foschia | 25 | 25 | 100 | 1011 | 3 | N 0 | |
| Oggi h: 06:30 | Foschia | 25 | 25 | 100 | 1011 | 3 | N 0 | |
| Oggi h: 06:00 | Foschia | 25 | 25 | 100 | 1011 | 3 | N 0 | |
| Oggi h: 05:30 | Foschia | 25 | 25 | 100 | 1010 | 4 | N 5.5 | |
| Oggi h: 05:00 | Foschia | 25 | 25 | 100 | 1010 | 4 | N 0 | |
| Oggi h: 04:30 | Foschia | 25 | 25 | 100 | 1010 | 5 | N 0 | |
| Oggi h: 04:00 | Foschia | 25 | 25 | 100 | 1010 | 5 | N 5.5 | |
| Oggi h: 03:30 | Foschia | 25 | 25 | 100 | 1010 | 5 | N 5.5 | |
| Oggi h: 03:00 | Foschia | 25 | 25 | 100 | 1010 | 3 | N 0 | |
| Oggi h: 02:30 | Foschia | 25 | 25 | 100 | 1010 | 4 | N 5.5 | |
| Oggi h: 02:00 | Foschia | 25 | 25 | 100 | 1011 | 5 | S/SO 9.3 | |
| Oggi h: 01:30 | Foschia | 25 | 24 | 94 | 1011 | 5 | SO 9.3 | |
| Oggi h: 01:00 | Nuvoloso | 25 | 24 | 94 | 1011 | 7 | S/SO 11.1 | |
| Oggi h: 00:30 | Nuvoloso | 25 | 24 | 94 | 1011 | 8 | SO 9.3 | |
| Oggi h: 00:00 | Foschia | 25 | 24 | 94 | 1012 | 5 | S/SE 14.8 | |
| Ieri h: 23:30 | Nuvoloso | 25 | 25 | 100 | 1012 | 7 | S 13 | |
| Ieri h: 23:00 | Temporale | 25 | 25 | 100 | 1012 | 6 | SO 11.1 | |
| Ieri h: 22:30 | Temporale | 25 | 25 | 100 | 1012 | 6 | O 11.1 | |
| Ieri h: 22:00 | Temporale | 25 | 24 | 94 | 1011 | 10 | O/SO 9.3 | |
| Ieri h: 21:50 | Temporale | 25 | 24 | 94 | 1011 | 9 | S/SE 11.1 | |
| Ieri h: 21:30 | Temporale | 25 | 24 | 94 | 1012 | 6 | S/SE 11.1 | |
| Ieri h: 21:00 | Temporale | 24 | 23 | 94 | 1011 | 5 | E/NE 9.3 | |
| Ieri h: 20:40 | Temporale | 25 | 24 | 94 | 1011 | 3 | N/NE 18.5 | |
| Ieri h: 20:30 | Temporale | 26 | 24 | 88 | 1011 | 0.9 | N/NO 27.8 | |
| Ieri h: 20:17 | Pioggia | 29 | 26 | 83 | 1011 | 6 | O 18.5 | |
| Ieri h: 20:00 | Foschia | 29 | 27 | 89 | 1011 | 5 | O 16.7 | |
| Ieri h: 19:30 | Nuvoloso | 30 | 26 | 79 | 1010 | 9 | N 5.5 | |
| Ieri h: 19:00 | Poco Nuvoloso | 29 | 26 | 83 | 1009 | 8 | N 5.5 | |
| Ieri h: 18:30 | Poco Nuvoloso | 30 | 26 | 79 | 1009 | 7 | E 9.3 | |
| Ieri h: 18:00 | Poco Nuvoloso | 30 | 26 | 79 | 1008 | 8 | E/NE 13 | |
| Ieri h: 17:30 | Poco Nuvoloso | 30 | 26 | 79 | 1008 | 10 | E/NE 22.2 | |
| Ieri h: 17:00 | Poco Nuvoloso | 31 | 26 | 74 | 1008 | 10 | E/NE 18.5 | |
| Ieri h: 16:30 | Poco Nuvoloso | 31 | 25 | 70 | 1008 | 10 | E 24 | |
| Ieri h: 16:00 | Poco Nuvoloso | 32 | 25 | 66 | 1008 | 10 | E/NE 24 | |
| Ieri h: 15:30 | Poco Nuvoloso | 32 | 25 | 66 | 1008 | 10 | NE 25.9 | |
| Ieri h: 15:00 | Poco Nuvoloso | 32 | 25 | 66 | 1008 | 10 | N/NE 22.2 | |
| Ieri h: 14:30 | Poco Nuvoloso | 33 | 25 | 62 | 1009 | 10 | N/NE 18.5 | |
| Ieri h: 14:00 | Poco Nuvoloso | 32 | 25 | 66 | 1009 | 10 | N/NE 20.3 | |
| Ieri h: 13:30 | Poco Nuvoloso | 33 | 25 | 62 | 1009 | 10 | N/NE 18.5 | |
| Ieri h: 13:00 | Poco Nuvoloso | 32 | 26 | 70 | 1010 | 10 | N/NE 18.5 | |
| Ieri h: 12:30 | Poco Nuvoloso | 32 | 26 | 70 | 1010 | 10 | N 14.8 | |
| Ieri h: 12:00 | Poco Nuvoloso | 32 | 26 | 70 | 1011 | 10 | N/NE 14.8 | |
| Ieri h: 11:30 | Poco Nuvoloso | 32 | 25 | 66 | 1011 | 10 | NE 7.4 | |
| Ieri h: 11:00 | Poco Nuvoloso | 32 | 24 | 62 | 1011 | 10 | N 3.7 | |
| Ieri h: 10:30 | Poco Nuvoloso | 32 | 25 | 66 | 1012 | 10 | N 5.5 | |
| Ieri h: 10:00 | Poco Nuvoloso | 31 | 25 | 70 | 1012 | 10 | E 7.4 | |
| Ieri h: 09:30 | Poco Nuvoloso | 31 | 25 | 70 | 1012 | 10 | S 7.4 | |
| Ieri h: 09:00 | Poco Nuvoloso | 30 | 24 | 70 | 1012 | 9 | SO 7.4 | |



